Weather History for KD50 - January, 2013

Change the Weather History Date:

Friday, January 18, 2013

  Actual Average (KISN) Record (KISN)
Temperature  
Mean Temperature 30 °F 11 °F  
Max Temperature 35 °F 22 °F 49 °F (1900)
Min Temperature 26 °F 0 °F -37 °F (1950)
Degree Days  
Heating Degree Days 34 54  
Month to date heating degree days 982  
Since 1 July heating degree days 4729  
Cooling Degree Days 0 0  
Month to date cooling degree days 0  
Year to date cooling degree days 0  
Moisture  
Dew Point 27 °F    
Average Humidity 82    
Maximum Humidity 93    
Minimum Humidity 70    
Precipitation  
Precipitation 0.00 in 0.02 in 0.11 in (1954)
Month to date precipitation 0.38  
Year to date precipitation 0.38  
Sea Level Pressure  
Sea Level Pressure 29.70 in    
Wind  
Wind Speed 14 mph (WSW)    
Max Wind Speed 23 mph    
Max Gust Speed 25 mph    
Visibility 10 miles    
Events      
T = Trace of Precipitation, MM = Missing Value Source: NWS Daily Summary

Daily Weather History Graph

Daily Weather History Graph

Search for Another Location

Airport or City:

Trip Planner

Search our weather history database for the weather conditions in past years. The results will help you decide how hot, cold, wet, or windy it might be!

Date:

Astronomy

Jan. 18, 2013 Rise Set
Actual Time 8:38 AM CST 5:29 PM CST
Civil Twilight 8:03 AM CST 6:04 PM CST
Nautical Twilight 7:24 AM CST 6:43 PM CST
Astronomical Twilight 6:46 AM CST 7:21 PM CST
Moon 11:35 AM CST (1/18) 1:02 AM CST (1/18)
Length of Visible Light 10h 01m
Length of Day
8h 50m
Waxing Crescent, 47% of the Moon is Illuminated
Jan 18
Waxing Crescent
Jan 18
First Quarter
Jan 26
Full
Feb 3
Last Quarter
Feb 10
New

Hourly Weather History & Observations

Time (CST) Temp. Windchill Dew Point Humidity Pressure Visibility Wind Dir Wind Speed Gust Speed Precip Events Conditions
12:15 AM 30.2 °F 21.3 °F 26.6 °F 86% 29.76 in 10.0 mi SSW 10.4 mph - N/A   Clear
12:35 AM 30.2 °F 21.3 °F 28.4 °F 93% 29.75 in 10.0 mi SSW 10.4 mph - N/A   Clear
12:55 AM 32.0 °F 22.5 °F 28.4 °F 87% 29.75 in 10.0 mi SSW 12.7 mph - N/A   Clear
1:15 AM 30.2 °F 20.8 °F 28.4 °F 93% 29.73 in 10.0 mi SSW 11.5 mph - N/A   Clear
1:35 AM 30.2 °F 20.8 °F 26.6 °F 86% 29.72 in 10.0 mi SSW 11.5 mph - N/A   Clear
1:55 AM 28.4 °F 19.1 °F 26.6 °F 93% 29.73 in 10.0 mi SW 10.4 mph - N/A   Scattered Clouds
2:15 AM 28.4 °F 19.7 °F 26.6 °F 93% 29.72 in 10.0 mi SW 9.2 mph 20.7 mph N/A   Scattered Clouds
2:35 AM 26.6 °F 15.7 °F 24.8 °F 93% 29.72 in 10.0 mi SW 12.7 mph - N/A   Scattered Clouds
2:55 AM 28.4 °F 19.1 °F 24.8 °F 86% 29.73 in 10.0 mi WSW 10.4 mph - N/A   Partly Cloudy
3:15 AM 28.4 °F 19.7 °F 23.0 °F 80% 29.72 in 10.0 mi SW 9.2 mph - N/A   Clear
3:35 AM 26.6 °F 16.8 °F 23.0 °F 86% 29.73 in 10.0 mi SSW 10.4 mph - N/A   Clear
3:55 AM 26.6 °F 16.8 °F 23.0 °F 86% 29.73 in 10.0 mi SW 10.4 mph - N/A   Clear
4:15 AM 26.6 °F 18.2 °F 23.0 °F 86% 29.72 in 10.0 mi WSW 8.1 mph - N/A   Clear
4:35 AM 30.2 °F 19.3 °F 24.8 °F 80% 29.73 in 10.0 mi West 15.0 mph - N/A   Clear
4:55 AM 30.2 °F 18.1 °F 24.8 °F 80% 29.72 in 10.0 mi West 18.4 mph - N/A   Clear
5:15 AM 28.4 °F 16.6 °F 24.8 °F 86% 29.71 in 10.0 mi West 16.1 mph - N/A   Clear
5:35 AM 28.4 °F 16.6 °F 24.8 °F 86% 29.72 in 10.0 mi West 16.1 mph - N/A   Clear
5:55 AM 28.4 °F 15.8 °F 24.8 °F 86% 29.71 in 10.0 mi West 18.4 mph - N/A   Clear
6:15 AM 30.2 °F 18.1 °F 24.8 °F 80% 29.70 in 10.0 mi WNW 18.4 mph - N/A   Clear
6:35 AM 30.2 °F 18.9 °F 24.8 °F 80% 29.70 in 10.0 mi WNW 16.1 mph - N/A   Clear
6:55 AM 30.2 °F 18.5 °F 24.8 °F 80% 29.71 in 10.0 mi West 17.3 mph - N/A   Clear
7:15 AM 32.0 °F 21.2 °F 26.6 °F 80% 29.71 in 10.0 mi West 16.1 mph - N/A   Scattered Clouds
7:35 AM 32.0 °F 21.2 °F 24.8 °F 75% 29.71 in 10.0 mi West 16.1 mph - N/A   Mostly Cloudy
7:55 AM 32.0 °F 21.6 °F 26.6 °F 80% 29.71 in 10.0 mi West 15.0 mph - N/A   Mostly Cloudy
8:15 AM 32.0 °F 22.1 °F 26.6 °F 80% 29.71 in 10.0 mi West 13.8 mph - N/A   Overcast
8:35 AM 30.2 °F 21.3 °F 26.6 °F 86% 29.71 in 10.0 mi West 10.4 mph - N/A   Mostly Cloudy
8:55 AM 30.2 °F 20.2 °F 26.6 °F 86% 29.71 in 10.0 mi WSW 12.7 mph - N/A   Clear
9:15 AM 30.2 °F 21.3 °F 24.8 °F 80% 29.72 in 10.0 mi SW 10.4 mph - N/A   Clear
9:35 AM 32.0 °F 23.0 °F 26.6 °F 80% 29.72 in 10.0 mi West 11.5 mph - N/A   Mostly Cloudy
9:55 AM 32.0 °F 20.5 °F 26.6 °F 80% 29.71 in 10.0 mi WSW 18.4 mph - N/A   Overcast
10:15 AM 32.0 °F 20.5 °F 26.6 °F 80% 29.70 in 10.0 mi WSW 18.4 mph - N/A   Mostly Cloudy
10:35 AM 32.0 °F 20.5 °F 26.6 °F 80% 29.70 in 10.0 mi WSW 18.4 mph - N/A   Mostly Cloudy
10:55 AM 32.0 °F 19.5 °F 26.6 °F 80% 29.71 in 10.0 mi WSW 21.9 mph - N/A   Overcast
11:15 AM 32.0 °F 19.5 °F 26.6 °F 80% 29.71 in 10.0 mi WSW 21.9 mph 25.3 mph N/A   Mostly Cloudy
11:35 AM 32.0 °F 21.2 °F 26.6 °F 80% 29.70 in 10.0 mi West 16.1 mph - N/A   Mostly Cloudy
11:55 AM 32.0 °F 19.2 °F 26.6 °F 80% 29.69 in 10.0 mi WSW 23.0 mph - N/A   Mostly Cloudy
12:15 PM 32.0 °F 20.8 °F 26.6 °F 80% 29.68 in 10.0 mi WSW 17.3 mph - N/A   Partly Cloudy
12:35 PM 32.0 °F 19.8 °F 26.6 °F 80% 29.68 in 10.0 mi West 20.7 mph 25.3 mph N/A   Clear
12:55 PM 35.6 °F 25.5 °F 26.6 °F 70% 29.68 in 10.0 mi West 17.3 mph 24.2 mph N/A   Clear
1:15 PM 35.6 °F 27.5 °F 26.6 °F 70% 29.69 in 10.0 mi West 11.5 mph - N/A   Clear
1:35 PM 33.8 °F 25.8 °F 26.6 °F 75% 29.68 in 10.0 mi WSW 10.4 mph - N/A   Clear
1:55 PM 33.8 °F 24.3 °F 26.6 °F 75% 29.68 in 10.0 mi SW 13.8 mph - N/A   Clear
2:15 PM 33.8 °F 24.3 °F 26.6 °F 75% 29.67 in 10.0 mi SW 13.8 mph - N/A   Partly Cloudy
2:35 PM 32.0 °F 22.1 °F 26.6 °F 80% 29.67 in 10.0 mi SSW 13.8 mph - N/A   Clear
2:55 PM 32.0 °F 21.6 °F 26.6 °F 80% 29.66 in 10.0 mi SSW 15.0 mph - N/A   Clear
3:15 PM 32.0 °F 23.6 °F 28.4 °F 87% 29.67 in 10.0 mi SSW 10.4 mph - N/A   Clear
3:35 PM 32.0 °F 22.5 °F 28.4 °F 87% 29.67 in 10.0 mi SW 12.7 mph - N/A   Clear
3:55 PM 32.0 °F 22.5 °F 28.4 °F 87% 29.67 in 10.0 mi WSW 12.7 mph - N/A   Clear
4:15 PM 32.0 °F 22.1 °F 28.4 °F 87% 29.68 in 10.0 mi WSW 13.8 mph - N/A   Clear
4:35 PM 32.0 °F 23.0 °F 28.4 °F 87% 29.68 in 10.0 mi SW 11.5 mph - N/A   Clear
4:55 PM 32.0 °F 23.0 °F 28.4 °F 87% 29.68 in 10.0 mi SW 11.5 mph - N/A   Partly Cloudy
5:15 PM 32.0 °F 21.2 °F 28.4 °F 87% 29.68 in 10.0 mi WSW 16.1 mph 19.6 mph N/A   Scattered Clouds
5:35 PM 33.8 °F 23.9 °F 28.4 °F 81% 29.66 in 10.0 mi WSW 15.0 mph - N/A   Scattered Clouds
5:55 PM 33.8 °F 24.8 °F 28.4 °F 81% 29.68 in 10.0 mi West 12.7 mph - N/A   Mostly Cloudy
6:15 PM 33.8 °F 23.5 °F 28.4 °F 81% 29.68 in 10.0 mi West 16.1 mph - N/A   Mostly Cloudy
6:35 PM 32.0 °F 23.0 °F 28.4 °F 87% 29.68 in 10.0 mi SW 11.5 mph - N/A   Mostly Cloudy
6:55 PM 32.0 °F 20.8 °F 28.4 °F 87% 29.68 in 10.0 mi WSW 17.3 mph - N/A   Partly Cloudy
7:15 PM 32.0 °F 22.5 °F 26.6 °F 80% 29.68 in 10.0 mi WSW 12.7 mph - N/A   Clear
7:35 PM 33.8 °F 24.8 °F 26.6 °F 75% 29.67 in 10.0 mi West 12.7 mph - N/A   Partly Cloudy
7:55 PM 33.8 °F 22.8 °F 28.4 °F 81% 29.68 in 10.0 mi West 18.4 mph - N/A   Partly Cloudy
8:15 PM 33.8 °F 23.2 °F 28.4 °F 81% 29.68 in 10.0 mi West 17.3 mph - N/A   Scattered Clouds
8:35 PM 33.8 °F 23.5 °F 28.4 °F 81% 29.67 in 10.0 mi WSW 16.1 mph - N/A   Mostly Cloudy
8:55 PM 33.8 °F 23.2 °F 28.4 °F 81% 29.66 in 10.0 mi WSW 17.3 mph - N/A   Scattered Clouds
9:35 PM 35.6 °F 25.5 °F 26.6 °F 70% 29.66 in 10.0 mi WNW 17.3 mph 21.9 mph N/A   Scattered Clouds
9:55 PM 35.6 °F 24.5 °F 28.4 °F 75% 29.67 in 10.0 mi West 20.7 mph - N/A   Partly Cloudy
10:15 PM 35.6 °F 25.2 °F 28.4 °F 75% 29.68 in 10.0 mi West 18.4 mph - N/A   Mostly Cloudy
10:35 PM 35.6 °F 25.2 °F 28.4 °F 75% 29.68 in 10.0 mi West 18.4 mph - N/A   Mostly Cloudy
10:55 PM 35.6 °F 25.9 °F 28.4 °F 75% 29.69 in 10.0 mi West 16.1 mph - N/A   Partly Cloudy
11:15 PM 35.6 °F 25.9 °F 28.4 °F 75% 29.70 in 10.0 mi West 16.1 mph - N/A   Scattered Clouds
11:35 PM 35.6 °F 25.9 °F 28.4 °F 75% 29.71 in 10.0 mi WNW 16.1 mph - N/A   Mostly Cloudy
11:55 PM 35.6 °F 26.2 °F 30.2 °F 81% 29.71 in 10.0 mi WNW 15.0 mph - N/A   Mostly Cloudy